Weather reports worldwide

Advertisment
Capo Carbonara, Italy (16564): temperature & dewpoint: 26.10.2020 02:00:00 - 01.11.2020 02:00:00 (CET)Capo Carbonara, Italy (16564): wind speed: 26.10.2020 02:00:00 - 01.11.2020 02:00:00 (CET)Capo Carbonara, Italy (16564): wind direction: 26.10.2020 02:00:00 - 01.11.2020 02:00:00 (CET)Capo Carbonara, Italy (16564): reduced air pressure: 26.10.2020 02:00:00 - 01.11.2020 02:00:00 (CET)Capo Carbonara, Italy (16564): visibility: 26.10.2020 02:00:00 - 01.11.2020 02:00:00 (CET)
Date & Time tt [°C] td [°C] ff [km/h] ff [kn] dd ppp [hPa] vv [km]
01.11.2020 02:00:00 - - - - - - -
01.11.2020 01:00:00 - - - - - - -
01.11.2020 00:00:00 - - - - - - -
31.10.2020 23:00:00 - - - - - - -
31.10.2020 22:00:00 18,0 15,2 18 10 SW 1023,6 18
31.10.2020 21:00:00 18,0 15,0 18 10 SW - 10
31.10.2020 20:00:00 18,0 16,0 22 12 SW - 10
31.10.2020 19:00:00 18,4 16,0 24 13 SW 1023,4 20
31.10.2020 18:00:00 19,0 16,0 21 11 SW - 10
31.10.2020 17:00:00 21,0 16,0 15 8 SSW - 10
31.10.2020 16:00:00 22,4 16,2 15 8 SSW 1023,4 30
31.10.2020 15:00:00 23,0 16,0 16 9 SSW - 10
31.10.2020 14:00:00 22,0 16,0 16 9 SSW - 10
31.10.2020 13:00:00 21,6 16,1 21 11 SW 1024,1 30
31.10.2020 12:00:00 21,0 16,0 21 11 SW - 10
31.10.2020 11:00:00 21,0 16,0 13 7 SSW - 10
31.10.2020 10:00:00 19,0 15,5 13 7 WSW 1024,8 30
31.10.2020 09:00:00 18,0 15,0 13 7 W - 10
31.10.2020 08:00:00 17,0 14,0 8 4 W - 10
31.10.2020 07:00:00 17,2 14,3 0 0 N 1024,6 22
31.10.2020 06:00:00 - - - - - - -
31.10.2020 05:00:00 - - - - - - -
31.10.2020 04:00:00 - - - - - - -
31.10.2020 03:00:00 - - - - - - -
31.10.2020 02:00:00 - - - - - - -
31.10.2020 01:00:00 - - - - - - -
31.10.2020 00:00:00 - - - - - - -
30.10.2020 23:00:00 - - - - - - -
30.10.2020 22:00:00 18,2 12,2 5 3 NNE 1024,4 20
30.10.2020 21:00:00 18,0 13,0 9 5 E - 10
30.10.2020 20:00:00 19,0 12,0 5 3 N - 10
30.10.2020 19:00:00 18,8 13,7 18 10 NE 1023,7 20
30.10.2020 18:00:00 20,0 16,0 26 14 W - 10
30.10.2020 17:00:00 20,0 16,0 37 20 W - 10
30.10.2020 16:00:00 21,4 16,1 24 13 SW 1023,3 20
30.10.2020 15:00:00 21,0 17,0 26 14 SW - 10
30.10.2020 14:00:00 21,0 16,0 37 20 WSW - 10
30.10.2020 13:00:00 20,8 16,0 39 21 W 1023,2 20
30.10.2020 12:00:00 - - 42 23 W - 10
30.10.2020 11:00:00 20,0 14,0 18 10 WSW - 10
30.10.2020 10:00:00 18,2 13,9 11 6 WSW 1024,3 20
30.10.2020 09:00:00 17,0 13,0 4 2 SW - 10
30.10.2020 08:00:00 17,0 12,0 2 1 NNW - 10
30.10.2020 07:00:00 16,6 13,0 15 8 W 1023,1 18
30.10.2020 06:00:00 - - - - - - -
30.10.2020 05:00:00 - - - - - - -
30.10.2020 04:00:00 - - - - - - -
30.10.2020 03:00:00 - - - - - - -
30.10.2020 02:00:00 - - - - - - -
30.10.2020 01:00:00 - - - - - - -
30.10.2020 00:00:00 - - - - - - -
29.10.2020 23:00:00 - - - - - - -
29.10.2020 22:00:00 17,8 7,8 16 9 NNW 1022,6 20
29.10.2020 21:00:00 18,0 10,0 29 16 W - 10
29.10.2020 20:00:00 18,0 12,0 24 13 W - 10
29.10.2020 19:00:00 17,8 11,6 35 19 W 1022,0 20
29.10.2020 18:00:00 18,0 12,0 35 19 W - 10
29.10.2020 17:00:00 19,0 12,0 44 24 W - 10
29.10.2020 16:00:00 20,4 11,9 48 26 W 1020,4 20
29.10.2020 15:00:00 21,0 10,0 67 36 W - 10
29.10.2020 14:00:00 21,0 10,0 59 32 W - 10
29.10.2020 13:00:00 20,6 12,6 61 33 W 1020,4 20
29.10.2020 12:00:00 20,0 14,0 68 37 W - 10
29.10.2020 11:00:00 19,0 15,0 50 27 W - 10
29.10.2020 10:00:00 18,2 14,7 44 24 W 1021,8 20
29.10.2020 09:00:00 18,0 12,0 13 7 NW - 10
29.10.2020 08:00:00 17,0 13,0 22 12 WNW - 10
29.10.2020 07:00:00 17,0 13,1 31 17 NNE 1021,2 20
29.10.2020 06:00:00 - - - - - - -
29.10.2020 05:00:00 - - - - - - -
29.10.2020 04:00:00 - - - - - - -
29.10.2020 03:00:00 - - - - - - -
29.10.2020 02:00:00 - - - - - - -
29.10.2020 01:00:00 - - - - - - -
29.10.2020 00:00:00 - - - - - - -
28.10.2020 23:00:00 - - - - - - -
28.10.2020 22:00:00 16,2 11,8 39 21 W 1020,5 20
28.10.2020 21:00:00 17,0 11,0 34 18 W - 10
28.10.2020 20:00:00 17,0 12,0 28 15 W - 10
28.10.2020 19:00:00 17,0 11,3 26 14 W 1019,7 20
28.10.2020 18:00:00 18,0 11,0 31 17 W - 10
28.10.2020 17:00:00 19,0 11,0 41 22 W - 10
28.10.2020 16:00:00 19,0 10,0 50 27 W 1018,3 25
28.10.2020 15:00:00 19,0 11,0 48 26 W - 10
28.10.2020 14:00:00 19,0 11,0 54 29 W - 10
28.10.2020 13:00:00 20,0 11,0 46 25 W - 10
28.10.2020 12:00:00 19,0 11,0 31 17 W - 10
28.10.2020 11:00:00 19,0 11,0 24 13 WSW - 10
28.10.2020 10:00:00 17,6 8,1 5 3 W 1018,4 20
28.10.2020 09:00:00 15,0 9,0 15 8 W - 10
28.10.2020 08:00:00 15,0 9,0 24 13 NNE - 10
28.10.2020 07:00:00 14,6 10,4 24 13 W 1016,9 20
28.10.2020 06:00:00 - - - - - - -
28.10.2020 05:00:00 - - - - - - -
28.10.2020 04:00:00 - - - - - - -
28.10.2020 03:00:00 - - - - - - -
28.10.2020 02:00:00 - - - - - - -
28.10.2020 01:00:00 - - - - - - -
28.10.2020 00:00:00 - - - - - - -
27.10.2020 23:00:00 - - - - - - -
27.10.2020 22:00:00 14,4 10,0 9 5 WSW 1016,4 20
27.10.2020 21:00:00 15,0 10,0 16 9 W - 10
27.10.2020 20:00:00 16,0 10,0 15 8 WNW - 10
27.10.2020 19:00:00 15,8 9,9 24 13 W 1015,0 18
27.10.2020 18:00:00 16,0 10,0 26 14 WNW - 10
27.10.2020 17:00:00 17,0 10,0 35 19 W - 10
27.10.2020 16:00:00 18,0 9,1 42 23 W 1013,9 18
27.10.2020 15:00:00 17,0 9,0 54 29 WSW - 10
27.10.2020 14:00:00 18,0 10,0 44 24 W - 10
27.10.2020 13:00:00 17,2 8,4 48 26 W 1014,1 16
27.10.2020 12:00:00 17,0 9,0 48 26 W - 10
27.10.2020 11:00:00 16,0 9,0 31 17 W - 10
27.10.2020 10:00:00 15,2 7,2 34 18 W 1014,3 18
27.10.2020 09:00:00 15,0 7,0 41 22 WNW - 10
27.10.2020 08:00:00 15,0 8,0 24 13 W - 10
27.10.2020 07:00:00 13,0 7,5 21 11 W 1013,4 18
27.10.2020 06:00:00 - - - - - - -
27.10.2020 05:00:00 - - - - - - -
27.10.2020 04:00:00 - - - - - - -
27.10.2020 03:00:00 - - - - - - -
27.10.2020 02:00:00 - - - - - - -
27.10.2020 01:00:00 - - - - - - -
27.10.2020 00:00:00 - - - - - - -
26.10.2020 23:00:00 - - - - - - -
26.10.2020 22:00:00 16,0 10,5 70 38 W 1009,6 16
26.10.2020 21:00:00 15,0 12,0 68 37 W - 10
26.10.2020 20:00:00 16,0 12,0 48 26 WNW - 10
26.10.2020 19:00:00 16,4 14,1 57 31 W 1009,4 12
26.10.2020 18:00:00 20,0 20,0 57 31 SSW - 10
26.10.2020 17:00:00 21,0 20,0 54 29 SW - 10
26.10.2020 16:00:00 22,0 19,4 55 30 SW 1008,9 20
26.10.2020 15:00:00 23,0 20,0 42 23 SW - 10
26.10.2020 14:00:00 23,0 21,0 31 17 SW - 10
26.10.2020 13:00:00 22,6 20,7 31 17 SSW 1011,3 20
26.10.2020 12:00:00 22,0 21,0 28 15 NNW - 10
26.10.2020 11:00:00 22,0 20,0 22 12 SSW - 10
26.10.2020 10:00:00 21,2 17,8 22 12 SSW 1013,6 25
26.10.2020 09:00:00 20,0 19,0 22 12 SSW - 10
26.10.2020 08:00:00 19,0 19,0 18 10 SSW - 10
26.10.2020 07:00:00 19,0 18,2 22 12 SSW 1013,7 18
26.10.2020 06:00:00 - - - - - - -
26.10.2020 05:00:00 - - - - - - -
26.10.2020 04:00:00 - - - - - - -
26.10.2020 03:00:00 - - - - - - -
26.10.2020 02:00:00 - - - - - - -

tt = temperature
td = dewpoint
ff = wind speed
dd = wind direction
ppp = reduced air pressure
vv = visibility

Next stations